TimeCST,TemperatureF,Dew PointF,Humidity,Sea Level PressureIn,VisibilityMPH,Wind Direction,Wind SpeedMPH,Gust SpeedMPH,PrecipitationIn,Events,Conditions,WindDirDegrees,DateUTC
12:15 AM,0.3,-2.2,89,30.25,10.0,Calm,Calm,-,N/A,,Overcast,0,2013-02-16 06:15:00
12:35 AM,1.0,-1.8,88,30.25,10.0,West,4.6,-,N/A,,Overcast,260,2013-02-16 06:35:00
12:55 AM,0.9,-1.8,88,30.25,10.0,West,5.8,-,N/A,,Overcast,270,2013-02-16 06:55:00
1:15 AM,0.9,-1.7,89,30.25,10.0,West,4.6,-,N/A,,Overcast,260,2013-02-16 07:15:00
1:35 AM,-0.0,-2.2,91,30.25,7.0,WNW,3.5,-,N/A,Snow,Light Snow,290,2013-02-16 07:35:00
1:55 AM,-0.9,-2.6,93,30.25,7.0,West,5.8,-,N/A,Snow,Light Snow,280,2013-02-16 07:55:00
2:16 AM,-0.6,-2.2,93,30.25,5.0,West,6.9,-,N/A,,Overcast,280,2013-02-16 08:16:00
2:35 AM,0.5,-1.3,92,30.24,5.0,West,5.8,-,N/A,Snow,Light Snow,280,2013-02-16 08:35:00
2:55 AM,1.2,-0.8,91,30.22,5.0,Calm,Calm,-,N/A,Snow,Light Snow,0,2013-02-16 08:55:00
3:15 AM,1.4,-0.8,91,30.22,5.0,NW,3.5,-,N/A,Snow,Light Snow,310,2013-02-16 09:15:00
3:36 AM,1.4,-0.8,91,30.21,5.0,Calm,Calm,-,N/A,Snow,Light Snow,0,2013-02-16 09:36:00
3:55 AM,1.8,-0.4,91,30.21,5.0,West,3.5,-,N/A,Snow,Light Snow,280,2013-02-16 09:55:00
4:16 AM,1.9,-0.4,90,30.20,4.0,WNW,3.5,-,N/A,Snow,Light Snow,290,2013-02-16 10:16:00
4:56 AM,1.8,-0.6,90,30.20,5.0,WNW,4.6,-,N/A,Snow,Light Snow,290,2013-02-16 10:56:00
5:15 AM,1.2,-1.3,89,30.20,5.0,WNW,4.6,-,N/A,Snow,Light Snow,290,2013-02-16 11:15:00
5:35 AM,1.0,-1.1,91,30.20,5.0,WNW,4.6,-,N/A,Snow,Light Snow,290,2013-02-16 11:35:00
5:56 AM,1.0,-1.3,90,30.19,5.0,West,3.5,-,N/A,Snow,Light Snow,280,2013-02-16 11:56:00
6:16 AM,0.9,-1.5,90,30.19,5.0,Calm,Calm,-,N/A,Snow,Light Snow,0,2013-02-16 12:16:00
6:35 AM,0.7,-1.5,91,30.19,2.5,Calm,Calm,-,N/A,,Overcast,0,2013-02-16 12:35:00
6:55 AM,-0.0,-2.4,90,30.19,5.0,Calm,Calm,-,N/A,,Overcast,0,2013-02-16 12:55:00
7:16 AM,-0.8,-3.1,90,30.19,5.0,Calm,Calm,-,N/A,,Overcast,0,2013-02-16 13:16:00
7:35 AM,0.7,-1.5,91,30.19,3.0,Calm,Calm,-,N/A,,Overcast,0,2013-02-16 13:35:00
7:56 AM,0.5,-1.8,90,30.19,5.0,Calm,Calm,-,N/A,,Mostly Cloudy,0,2013-02-16 13:56:00
8:15 AM,1.2,-1.3,89,30.19,7.0,Calm,Calm,-,N/A,,Clear,0,2013-02-16 14:15:00
8:35 AM,2.3,0.3,91,30.19,3.0,Calm,Calm,-,N/A,Snow,Light Snow,0,2013-02-16 14:35:00
8:55 AM,3.6,1.4,91,30.19,2.0,Calm,Calm,-,N/A,Snow,Light Snow,0,2013-02-16 14:55:00
9:16 AM,3.7,1.8,91,30.19,1.2,Calm,Calm,-,N/A,Snow,Light Snow,0,2013-02-16 15:16:00
9:35 AM,4.8,2.7,91,30.19,1.5,Calm,Calm,-,N/A,Snow,Light Snow,0,2013-02-16 15:35:00
9:55 AM,5.0,3.0,92,30.18,1.2,Calm,Calm,-,N/A,Snow,Light Snow,0,2013-02-16 15:55:00
10:15 AM,6.1,3.9,91,30.18,1.2,Calm,Calm,-,N/A,Snow,Light Snow,0,2013-02-16 16:15:00
10:35 AM,7.3,5.5,92,30.18,1.0,Calm,Calm,-,N/A,Snow,Light Snow,0,2013-02-16 16:35:00
10:55 AM,7.7,5.9,92,30.18,5.0,Calm,Calm,-,N/A,Snow,Light Snow,0,2013-02-16 16:55:00
11:15 AM,9.0,6.8,91,30.18,7.0,Calm,Calm,-,N/A,Snow,Light Snow,0,2013-02-16 17:15:00
11:36 AM,9.1,5.9,87,30.18,7.0,Calm,Calm,-,N/A,Snow,Light Snow,0,2013-02-16 17:36:00
11:55 AM,10.2,5.4,81,30.17,10.0,Calm,Calm,-,N/A,,Clear,0,2013-02-16 17:55:00
12:15 PM,10.6,5.2,79,30.17,2.5,Calm,Calm,-,N/A,Snow,Light Snow,0,2013-02-16 18:15:00
12:36 PM,12.2,5.5,75,30.17,4.0,Calm,Calm,-,N/A,Snow,Light Snow,0,2013-02-16 18:36:00
12:55 PM,12.2,5.5,75,30.16,7.0,ENE,3.5,-,N/A,Snow,Light Snow,70,2013-02-16 18:55:00
1:16 PM,12.7,5.4,72,30.15,10.0,SSE,4.6,-,N/A,,Clear,150,2013-02-16 19:16:00
1:35 PM,12.7,5.7,74,30.15,10.0,SE,4.6,-,N/A,,Clear,140,2013-02-16 19:35:00
1:55 PM,12.9,5.7,73,30.14,10.0,SE,4.6,-,N/A,,Clear,130,2013-02-16 19:55:00
2:16 PM,13.5,5.9,72,30.14,10.0,SE,3.5,-,N/A,,Clear,140,2013-02-16 20:16:00
2:35 PM,13.8,6.1,71,30.13,10.0,SE,3.5,-,N/A,,Clear,140,2013-02-16 20:35:00
2:56 PM,14.2,6.4,71,30.14,10.0,SSE,3.5,-,N/A,,Clear,160,2013-02-16 20:56:00
3:15 PM,14.7,6.6,70,30.13,10.0,Calm,Calm,-,N/A,,Clear,0,2013-02-16 21:15:00
3:35 PM,14.9,6.8,70,30.13,10.0,Calm,Calm,-,N/A,,Clear,0,2013-02-16 21:35:00
3:55 PM,15.3,6.8,69,30.13,10.0,Calm,Calm,-,N/A,,Clear,0,2013-02-16 21:55:00
4:15 PM,14.5,6.6,71,30.13,10.0,Calm,Calm,-,N/A,,Clear,0,2013-02-16 22:15:00
4:35 PM,13.5,6.4,74,30.13,10.0,Calm,Calm,-,N/A,,Clear,0,2013-02-16 22:35:00
4:56 PM,13.3,6.4,74,30.13,10.0,Calm,Calm,-,N/A,,Clear,0,2013-02-16 22:56:00
5:16 PM,13.1,6.1,74,30.13,10.0,Calm,Calm,-,N/A,,Clear,0,2013-02-16 23:16:00
5:35 PM,12.7,6.3,75,30.14,10.0,Calm,Calm,-,N/A,,Clear,0,2013-02-16 23:35:00
5:55 PM,7.9,2.8,80,30.13,10.0,Calm,Calm,-,N/A,,Clear,0,2013-02-16 23:55:00
6:16 PM,6.3,2.7,85,30.13,10.0,Calm,Calm,-,N/A,,Clear,0,2013-02-17 00:16:00
6:35 PM,4.6,2.1,89,30.13,10.0,Calm,Calm,-,N/A,,Clear,0,2013-02-17 00:35:00
6:56 PM,4.5,1.9,89,30.13,10.0,Calm,Calm,-,N/A,,Clear,0,2013-02-17 00:56:00
7:15 PM,2.3,-0.0,90,30.13,10.0,Calm,Calm,-,N/A,,Clear,0,2013-02-17 01:15:00
7:35 PM,0.9,-1.5,90,30.12,10.0,Calm,Calm,-,N/A,,Clear,0,2013-02-17 01:35:00
7:56 PM,0.5,-1.7,91,30.11,10.0,Calm,Calm,-,N/A,,Clear,0,2013-02-17 01:56:00
8:16 PM,-0.8,-3.1,90,30.11,7.0,Calm,Calm,-,N/A,,Clear,0,2013-02-17 02:16:00
8:35 PM,-2.7,-5.3,89,30.11,7.0,Calm,Calm,-,N/A,,Clear,0,2013-02-17 02:35:00
8:56 PM,-3.8,-6.0,90,30.11,7.0,Calm,Calm,-,N/A,,Clear,0,2013-02-17 02:56:00
9:16 PM,-3.5,-6.2,88,30.11,10.0,Calm,Calm,-,N/A,,Clear,0,2013-02-17 03:16:00
9:35 PM,-3.8,-6.3,89,30.12,10.0,Calm,Calm,-,N/A,,Scattered Clouds,0,2013-02-17 03:35:00
9:56 PM,-3.3,-5.8,89,30.11,10.0,Calm,Calm,-,N/A,,Overcast,0,2013-02-17 03:56:00
10:15 PM,-1.7,-4.0,90,30.10,10.0,Calm,Calm,-,N/A,,Overcast,0,2013-02-17 04:15:00
10:35 PM,-1.3,-3.8,89,30.10,10.0,Calm,Calm,-,N/A,,Overcast,0,2013-02-17 04:35:00
10:56 PM,-0.4,-2.7,90,30.09,10.0,Calm,Calm,-,N/A,,Mostly Cloudy,0,2013-02-17 04:56:00
11:16 PM,0.9,-1.7,89,30.09,10.0,SE,3.5,-,N/A,,Mostly Cloudy,140,2013-02-17 05:16:00
11:35 PM,0.5,-2.2,88,30.08,10.0,SE,3.5,-,N/A,,Overcast,140,2013-02-17 05:35:00
11:55 PM,2.5,0.1,90,30.07,10.0,SE,3.5,-,N/A,,Overcast,130,2013-02-17 05:55:00